Regional Weather Roundup
Issued by NWS Sioux Falls, SD

Home | Current Version | Previous Version | Text Only | Print | Product List | Glossary On
Versions: 1 2 3 4 5 6 7 8 9 10 11 12 13 14 15 16 17 18 19 20 21 22 23 24 25 26 27 28 29 30 31 32 33 34 35 36 37 38 39 40 41 42 43 44 45 46 47 48 49 50
000
ASUS43 KFSD 160910
RWRFSD

WEATHER ROUNDUP FOR SE SOUTH DAKOTA/SW MINNESOTA/NW IOWA
NATIONAL WEATHER SERVICE SIOUX FALLS SD
400 AM CDT WED APR 16 2014

NOTE: "FAIR" INDICATES FEW OR NO CLOUDS BELOW 12,000 FEET WITH NO
SIGNIFICANT WEATHER AND OR OBSTRUCTIONS TO VISIBILITY.


SDZ038>040-050-052>070-161000-
SOUTHEAST SOUTH DAKOTA

CITY           SKY/WX    TMP DP  RH WIND       PRES   REMARKS
CHAMBERLAIN    NOT AVBL
HURON          CLOUDY    39  26  59 E18G25    29.59F
MITCHELL       CLOUDY    45  29  53 SE14      29.55F
SIOUX FALLS    CLOUDY    41  28  60 SE15G23   29.64F
WINNER         PTSUNNY   55  28  35 W8        29.45F
YANKTON        CLOUDY    48  27  43 SE16G23   29.59F
$$

MNZ071-072-080-081-089-090-097-098-161000-
SOUTHWEST MINNESOTA

CITY           SKY/WX    TMP DP  RH WIND       PRES   REMARKS
FAIRMONT       CLOUDY    34  21  60 SE22G29   29.85F WCI  22
JACKSON        CLOUDY    34  25  69 SE21      29.79F WCI  22
LUVERNE        CLOUDY    39  28  65 SE13      29.71F
MARSHALL       CLOUDY    34  19  55 SE21      29.78F WCI  22
MONTEVIDEO     MOCLDY    32  19  59 SE21G32   29.85R WCI  20
PIPESTONE      CLOUDY    36  27  69 SE16G23   29.68F
REDWOOD FALLS  CLOUDY    34  20  56 E17G24    29.85F WCI  23
TRACY          CLOUDY    34  22  62 E18       29.79S WCI  23
WINDOM         CLOUDY    34  23  64 E22G29    29.78F WCI  22
WORTHINGTON    CLOUDY    36  21  55 SE17G25   29.75F
$$

IAZ001>003-012>014-020>022-031-032-NEZ013-014-SDZ071-161000-
NORTHWEST IOWA

CITY           SKY/WX    TMP DP  RH WIND       PRES   REMARKS
CHEROKEE       CLOUDY    39  31  73 SE13      29.75F
DENISON        CLOUDY    43  30  61 S28G39    29.75F
ESTHERVILLE    CLOUDY    35  26  69 SE26      29.79F WCI  22
LE MARS        CLOUDY    46  28  49 S23       29.68S
ORANGE CITY    CLOUDY    43  28  56 SE12G17   29.69F
SHELDON        CLOUDY    39  28  65 SE18G25   29.71S
SIOUX CITY     CLOUDY    48  29  47 SE16      29.68F
SPENCER        CLOUDY    38  28  67 SE23G29   29.77F
STORM LAKE     CLOUDY    37  32  81 SE13G21   29.77S
$$

ABBREVIATIONS USED IN REMARKS
   TC - TEMPERATURE IN CELSIUS
  WCI - WIND CHILL INDEX
   HX - HEAT INDEX
  VSB - VISIBILITY




USA.gov is the U.S. government's official web portal to all federal, state and local government web resources and services.